軌道要素
Epoch 2023 Sept. 13.0 TT = JDT 2460200.5
T 2024 May 22.93380 TT Rudenko
q 2.8164408 (2000.0) P Q
n 0.11293447 Peri. 202.87582 -0.04078730 -0.99333827
a 4.2388858 Node 249.60036 +0.93358116 +0.00054831
e 0.3355705 Incl. 6.60285 +0.35603738 -0.11523362
P 8.73
>From 117 observations 2023 July 16-2024 Jan. 11, mean residual 0".4.
|